Aérodrome :
LOGIN :

S'inscrire | Disclaimer

   EN    FR    IT 

 










Légende :    VFR   VFR Marginal   IFR   IFR Intensif   IFR Très Intensif
Visi : 
Plafond : 
>= 8 km
>= 3000ft
5 à 8 km
1000 à 3000 ft
1500m à 5 km
500 à 1000 ft
800 à 1500m
200 à 500 ft
< 800m
< 200 ft
Symboles :   Orages  Brouillard  Fortes neiges  Fortes précipitations  Vent > 20 kt
SIGMETs :   Divers  Orages  Givrage  Turbulence  Onde Orograph.  Cendres Volcan.






- Altitude de l'aérodrome : 286 ft
- Code IATA : FFD


EGVA - RAF Fairford

DERNIER METAR :
  • 221956Z AUTO 10013KT 9999 OVC075 08/06 A2930 RMK AO2 SLP927 T00790064 $

METARs EXPIRÉS :
  • 221856Z AUTO 11013KT 9999 BKN095 08/07 A2930 RMK AO2 SLP927 T00780066 $
  • 221841Z AUTO 10013KT 9999 SCT012 BKN090 08/07 A2930 RMK AO2 SLP927 $
  • 221756Z AUTO 10012KT 9999 BKN013 OVC018 08/07 A2929 RMK AO2 SLP924 60003 T00810069 10089 20072 55003 $
  • 221726Z AUTO 11014KT 9999 BKN015 BKN065 OVC120 08/07 A2930 RMK AO2 CIG 015V065 SLP927 $

Prévision TAF périmée.



MET'MAP, la Météo Aéronautique d'un coup d'oeil ! - Copyright ORBIFLY Décembre 2007 - Disclaimer

ORBIFLY MET'MAP TEAM :

Programmation & Développement : Alexandra Zaïnal
Conception & Développement : Baudouin d'Aumeries
Co-Programmation & Développement : Marc-Olivier Méhu
Soutien technique & logistique : Manuel Goepfert

Contact : metmap@orbifly.com




SOURCES & CREDITS :

   NOAA